• In Deutschland
  • Länderverzeichnis
  • Für 7 Tage
  • Wassertemperatur
  • Satellitenkarten
  • Wetterkarte
  • Widgets
  • user-avatar
    Anmelden

    Stündliche Wetter Berat

    Heute, 29 Mai, Montag

    Zeit Temperatur Niederschläge Wind Luftdruck Luftfeuchtigkeit
    00:00 +15°C° 0 mm 2 m/S 747 mmHg 81%
    01:00 +15°C° 0 mm 2 m/S 746 mmHg 82%
    02:00 +15°C° 0 mm 2 m/S 746 mmHg 82%
    03:00 +14°C° 0 mm 2 m/S 746 mmHg 82%
    04:00 +14°C° 0 mm 2 m/S 746 mmHg 82%
    05:00 +16°C° 0 mm 2 m/S 746 mmHg 77%
    06:00 +19°C° 0 mm 1 m/S 746 mmHg 71%
    07:00 +21°C° 0 mm 1 m/S 746 mmHg 66%
    08:00 +23°C° 0 mm 1 m/S 746 mmHg 59%
    09:00 +24°C° 0 mm 1 m/S 746 mmHg 52%
    10:00 +26°C° 0 mm 1 m/S 746 mmHg 45%
    11:00 +26°C° 0,2 mm 2 m/S 746 mmHg 46%
    12:00 +26°C° 0,2 mm 2 m/S 746 mmHg 46%
    13:00 +27°C° 0,2 mm 3 m/S 746 mmHg 47%
    14:00 +26°C° 0,3 mm 3 m/S 745 mmHg 50%
    15:00 +25°C° 0,3 mm 3 m/S 745 mmHg 53%
    16:00 +25°C° 0,3 mm 2 m/S 745 mmHg 56%
    17:00 +21°C° 0,2 mm 2 m/S 745 mmHg 64%
    18:00 +19°C° 0,2 mm 2 m/S 744 mmHg 72%
    19:00 +18°C° 0,2 mm 1 m/S 744 mmHg 80%
    20:00 +16°C° 0,1 mm 1 m/S 745 mmHg 82%
    21:00 +16°C° 0,1 mm 1 m/S 745 mmHg 83%
    22:00 +14°C° 0,1 mm 0 m/S 745 mmHg 84%
    23:00 +14°C° 0 mm 0 m/S 745 mmHg 85%

    Morgen, 30 Mai, Dienstag

    Zeit Temperatur Niederschläge Wind Luftdruck Luftfeuchtigkeit
    00:00 +13°C° 0 mm 0 m/S 745 mmHg 85%
    01:00 +13°C° 0 mm 0 m/S 745 mmHg 86%
    02:00 +13°C° 0 mm 0 m/S 745 mmHg 86%
    03:00 +13°C° 0 mm 0 m/S 745 mmHg 87%
    04:00 +12°C° 0 mm 0 m/S 745 mmHg 87%
    05:00 +15°C° 0 mm 0 m/S 745 mmHg 79%
    06:00 +18°C° 0 mm 0 m/S 745 mmHg 71%
    07:00 +20°C° 0 mm 0 m/S 745 mmHg 62%
    08:00 +24°C° 0 mm 1 m/S 746 mmHg 57%
    09:00 +25°C° 0 mm 1 m/S 746 mmHg 52%
    10:00 +26°C° 0 mm 2 m/S 746 mmHg 47%
    11:00 +26°C° 0,2 mm 2 m/S 746 mmHg 46%
    12:00 +27°C° 0,2 mm 3 m/S 746 mmHg 46%
    13:00 +27°C° 0,2 mm 3 m/S 746 mmHg 45%
    14:00 +27°C° 0,1 mm 3 m/S 746 mmHg 46%
    15:00 +26°C° 0,1 mm 3 m/S 746 mmHg 47%
    16:00 +26°C° 0,1 mm 3 m/S 745 mmHg 48%
    17:00 +23°C° 0 mm 2 m/S 746 mmHg 58%
    18:00 +20°C° 0 mm 2 m/S 746 mmHg 67%
    19:00 +18°C° 0 mm 1 m/S 746 mmHg 76%
    20:00 +18°C° 0 mm 1 m/S 746 mmHg 77%
    21:00 +16°C° 0 mm 1 m/S 746 mmHg 78%
    22:00 +15°C° 0 mm 1 m/S 747 mmHg 78%
    23:00 +15°C° 0 mm 1 m/S 747 mmHg 79%

    übermorgen, 31 Mai, Mittwoch

    Zeit Temperatur Niederschläge Wind Luftdruck Luftfeuchtigkeit
    00:00 +14°C° 0 mm 1 m/S 747 mmHg 80%
    01:00 +14°C° 0 mm 1 m/S 747 mmHg 81%
    02:00 +14°C° 0 mm 1 m/S 747 mmHg 81%
    03:00 +14°C° 0 mm 1 m/S 747 mmHg 82%
    04:00 +14°C° 0 mm 1 m/S 747 mmHg 82%
    05:00 +16°C° 0 mm 1 m/S 747 mmHg 73%
    06:00 +20°C° 0 mm 1 m/S 747 mmHg 63%
    07:00 +23°C° 0 mm 1 m/S 747 mmHg 54%
    08:00 +24°C° 0 mm 1 m/S 747 mmHg 50%
    09:00 +26°C° 0 mm 1 m/S 748 mmHg 46%
    10:00 +27°C° 0 mm 2 m/S 748 mmHg 42%
    11:00 +28°C° 0 mm 2 m/S 747 mmHg 41%
    12:00 +28°C° 0 mm 3 m/S 747 mmHg 40%
    13:00 +29°C° 0 mm 3 m/S 747 mmHg 39%
    14:00 +28°C° 0 mm 3 m/S 747 mmHg 42%
    15:00 +28°C° 0 mm 3 m/S 747 mmHg 45%
    16:00 +27°C° 0 mm 3 m/S 746 mmHg 47%
    17:00 +24°C° 0 mm 2 m/S 746 mmHg 58%
    18:00 +21°C° 0 mm 2 m/S 746 mmHg 69%
    19:00 +19°C° 0 mm 1 m/S 746 mmHg 79%
    20:00 +18°C° 0 mm 1 m/S 747 mmHg 81%
    21:00 +15°C° 0 mm 0 m/S 747 mmHg 83%
    22:00 +14°C° 0 mm 0 m/S 747 mmHg 85%
    23:00 +14°C° 0 mm 0 m/S 747 mmHg 85%

    1 Juni, Donnerstag

    Zeit Temperatur Niederschläge Wind Luftdruck Luftfeuchtigkeit
    00:00 +14°C° 0 mm 0 m/S 747 mmHg 85%
    01:00 +14°C° 0 mm 0 m/S 747 mmHg 85%
    02:00 +13°C° 0 mm 0 m/S 747 mmHg 84%
    03:00 +14°C° 0 mm 1 m/S 746 mmHg 84%
    04:00 +14°C° 0 mm 1 m/S 746 mmHg 83%
    05:00 +18°C° 0 mm 1 m/S 747 mmHg 72%
    06:00 +21°C° 0 mm 1 m/S 747 mmHg 60%
    07:00 +22°C° 0 mm 0 m/S 747 mmHg 49%
    08:00 +25°C° 0 mm 1 m/S 747 mmHg 45%
    09:00 +27°C° 0 mm 1 m/S 747 mmHg 41%
    10:00 +29°C° 0 mm 2 m/S 747 mmHg 37%
    11:00 +29°C° 0 mm 2 m/S 747 mmHg 36%
    12:00 +30°C° 0 mm 3 m/S 746 mmHg 36%
    13:00 +30°C° 0 mm 3 m/S 746 mmHg 36%
    14:00 +30°C° 0 mm 3 m/S 746 mmHg 39%
    15:00 +29°C° 0 mm 3 m/S 746 mmHg 43%
    16:00 +28°C° 0 mm 3 m/S 746 mmHg 46%
    17:00 +26°C° 0 mm 3 m/S 746 mmHg 56%
    18:00 +23°C° 0 mm 2 m/S 746 mmHg 67%
    19:00 +20°C° 0 mm 1 m/S 746 mmHg 77%
    20:00 +19°C° 0 mm 1 m/S 746 mmHg 79%
    21:00 +18°C° 0 mm 1 m/S 746 mmHg 82%
    22:00 +16°C° 0 mm 1 m/S 746 mmHg 84%
    23:00 +16°C° 0 mm 1 m/S 746 mmHg 83%

    2 Juni, Freitag

    Zeit Temperatur Niederschläge Wind Luftdruck Luftfeuchtigkeit
    00:00 +16°C° 0 mm 1 m/S 746 mmHg 82%
    01:00 +15°C° 0 mm 1 m/S 746 mmHg 82%
    02:00 +15°C° 0 mm 1 m/S 745 mmHg 81%
    03:00 +15°C° 0 mm 1 m/S 745 mmHg 81%
    04:00 +15°C° 0 mm 1 m/S 745 mmHg 80%
    05:00 +18°C° 0 mm 1 m/S 745 mmHg 70%
    06:00 +21°C° 0 mm 1 m/S 746 mmHg 60%
    07:00 +24°C° 0 mm 1 m/S 746 mmHg 50%
    08:00 +26°C° 0 mm 1 m/S 746 mmHg 46%
    09:00 +28°C° 0 mm 1 m/S 746 mmHg 42%
    10:00 +29°C° 0 mm 2 m/S 746 mmHg 38%
    11:00 +30°C° 0 mm 2 m/S 746 mmHg 37%
    12:00 +30°C° 0 mm 3 m/S 745 mmHg 36%
    13:00 +31°C° 0 mm 3 m/S 745 mmHg 36%
    14:00 +30°C° 0 mm 3 m/S 745 mmHg 39%
    15:00 +29°C° 0 mm 3 m/S 745 mmHg 43%
    16:00 +29°C° 0 mm 3 m/S 744 mmHg 46%
    17:00 +26°C° 0 mm 3 m/S 744 mmHg 57%
    18:00 +23°C° 0 mm 2 m/S 744 mmHg 68%
    19:00 +20°C° 0 mm 2 m/S 744 mmHg 80%
    20:00 +20°C° 0 mm 1 m/S 745 mmHg 82%
    21:00 +19°C° 0 mm 1 m/S 745 mmHg 84%
    22:00 +18°C° 0 mm 1 m/S 745 mmHg 86%
    23:00 +16°C° 0 mm 1 m/S 745 mmHg 85%

    3 Juni, Samstag

    Zeit Temperatur Niederschläge Wind Luftdruck Luftfeuchtigkeit
    00:00 +16°C° 0 mm 1 m/S 744 mmHg 85%
    01:00 +16°C° 0 mm 1 m/S 744 mmHg 84%
    02:00 +16°C° 0 mm 1 m/S 744 mmHg 84%
    03:00 +15°C° 0 mm 1 m/S 744 mmHg 83%
    04:00 +15°C° 0 mm 1 m/S 744 mmHg 83%
    05:00 +19°C° 0 mm 1 m/S 744 mmHg 73%
    06:00 +22°C° 0 mm 1 m/S 744 mmHg 63%
    07:00 +25°C° 0 mm 1 m/S 744 mmHg 53%
    08:00 +26°C° 0,1 mm 1 m/S 744 mmHg 49%
    09:00 +28°C° 0,1 mm 1 m/S 744 mmHg 45%
    10:00 +29°C° 0,1 mm 2 m/S 744 mmHg 41%
    11:00 +30°C° 0,2 mm 2 m/S 744 mmHg 41%
    12:00 +30°C° 0,2 mm 3 m/S 744 mmHg 42%
    13:00 +30°C° 0,2 mm 3 m/S 743 mmHg 42%
    14:00 +29°C° 0,3 mm 3 m/S 743 mmHg 45%
    15:00 +29°C° 0,3 mm 3 m/S 743 mmHg 48%
    16:00 +28°C° 0,3 mm 3 m/S 743 mmHg 50%
    17:00 +26°C° 0,1 mm 2 m/S 743 mmHg 59%
    18:00 +23°C° 0,1 mm 2 m/S 743 mmHg 69%
    19:00 +21°C° 0,1 mm 1 m/S 743 mmHg 78%
    20:00 +20°C° 0 mm 1 m/S 743 mmHg 81%
    21:00 +19°C° 0 mm 1 m/S 744 mmHg 84%
    22:00 +17°C° 0 mm 0 m/S 744 mmHg 87%
    23:00 +19°C° 0,2 mm 1 m/S 744 mmHg 87%
    Mehr zeigen